Flag for U.S.A. Weather past 2 weeks in Mason, Ohio, U.S.A.

Now
73 °F

Passing clouds.


Feels Like: 74 °F
Forecast: 66 / 87 °F
Wind: 6 mph from North

Location: Butler County Regional Airport

Current Time: Aug 3, 2015 at 11:25:19 AM

Latest Report: Aug 3, 2015 at 10:53 AM


Visibility: 10 mi

Pressure: 29.88 "Hg

Humidity: 76%

Dew point: 65 °F

Location of MasonLocation

Historic Weather in Mason — Graph

°F

Mason temperature yesterday

Maximum temperature yesterday: 89 °F (at 4:53 PM)
Minimum temperature yesterday: 60 °F (at 6:53 AM)
Average temperature yesterday: 75 °F

Past Weeks' High & Low Weather Summary

 TemperatureHumidityPressure
High92 °F (Jul 29, 1:53 PM)100% (Jul 20, 3:53 AM)30.07 "Hg (Jul 20, 3:53 AM)
Low56 °F (Jul 22, 5:53 AM)36% (Jul 31, 4:53 PM)29.73 "Hg (Jul 21, 4:53 AM)
Average75 °F75%29.96 "Hg
* Reported Jul 19 9:53 AM — Aug 3 9:53 AM, Mason, Weather by CustomWeather, © 2015

Note: Actual official high and low records may vary slightly from our data, if they occured in-between our weather recording intervals... More about our weather records

Advertising

Mason weather history for previous 24 hours

 ConditionsComfort  
Time TempWeatherWind HumidityBarometerVisibility
9:53 AM
Mon, Aug 3
68 °FOvercast.5 mph87%29.88 "Hg10 mi
8:53 AM67 °FPartly sunny.5 mph87%29.87 "Hg10 mi
7:53 AM64 °FPartly sunny.5 mph94%29.88 "Hg10 mi
6:53 AM64 °FThunderstorms. Fog.9 mph94%29.89 "Hg5 mi
6:04 AM64 °FStrong thunderstorms. Fog.7 mph94%30.00 "Hg2 mi
5:53 AM63 °FStrong thunderstorms. Fog.8 mph97%29.95 "Hg3 mi
4:53 AM70 °FThundershowers. Mostly cloudy.15 mph68%29.91 "Hg10 mi
3:53 AM66 °FPassing clouds.No wind93%29.84 "Hg10 mi
2:53 AM65 °FPassing clouds.No wind91%29.85 "Hg10 mi
1:53 AM68 °FClear.No wind82%29.86 "Hg10 mi
12:53 AM73 °FClear.No wind66%29.85 "Hg10 mi
11:53 PM
Sun, Aug 2
73 °FClear.5 mph66%29.86 "Hg10 mi
10:53 PM69 °FClear.3 mph81%29.88 "Hg10 mi
9:53 PM71 °FClear.3 mph76%29.88 "Hg10 mi
8:53 PM75 °FSunny.3 mph66%29.86 "Hg10 mi
7:53 PM84 °FSunny.5 mph45%29.86 "Hg10 mi
6:53 PM85 °FSunny.7 mph46%29.89 "Hg10 mi
5:53 PM86 °FSunny.8 mph45%29.89 "Hg10 mi
4:53 PM89 °FSunny.N/A41%29.91 "Hg10 mi
3:53 PM88 °FSunny.6 mph40%29.93 "Hg10 mi
2:53 PM87 °FSunny.8 mph43%29.95 "Hg10 mi
1:53 PM88 °FSunny.7 mph45%29.96 "Hg10 mi
12:53 PM85 °FSunny.6 mph43%29.97 "Hg10 mi
11:53 AM84 °FSunny.5 mph49%29.98 "Hg10 mi
Weather by CustomWeather, © 2015

See weather overviewHow to use our weather pages